Location: Peterborough
(44.3091°N, 78.3197°W)
Time: 03:38:34
(UTC-04:00)

Tiros 1 despin weight - Pass Details

Date: 29 March 2023
Orbit: 586 x 632 km, 48.2° (Epoch: 08 June)

Event Time Altitude Azimuth Distance (km) Brightness Sun altitude
Rises 22:48:39 0° 275° (W) 2,809 ? -31.6°
Reaches altitude 10° 22:50:58 10° 281° (W) 1,911 ? -31.9°
Enters shadow 22:52:51 24° 292° (WNW) 1,240 ? -32.1°
Maximum altitude 22:55:14 50° 357° (N) 753 - -32.4°
Drops below altitude 10° 22:59:33 10° 74° (ENE) 1,931 - -32.9°
Sets 23:01:54 0° 80° (E) 2,841 - -33.2°
